Location: Unspecified
(0.0000°N, 0.0000°E)
Time: 16:22:20
(UTC+00:00)

Vanguard 3 - Pass Details

Date: 22 November 2019
Orbit: 508 x 3263 km, 33.3° (Epoch: 12 December)

Event Time Altitude Azimuth Distance (km) Brightness Sun altitude
Rises 19:54:50 0° 314° (NW) 6,230 11.9 -30.0°
Reaches altitude 10° 19:59:51 10° 319° (NW) 4,779 11.2 -31.1°
Enters shadow 20:09:18 41° 357° (N) 2,161 9.0 -33.3°
Maximum altitude 20:11:23 46° 28° (NNE) 1,852 - -33.8°
Drops below altitude 10° 20:17:58 10° 100° (E) 2,781 - -35.3°
Sets 20:20:08 0° 107° (ESE) 3,480 - -35.7°
